Regional Weather Roundup
Issued by NWS

Home | Current Version | Previous Version | Graphics & Text | Print | Product List | Glossary On
Versions: 1 2 3 4 5 6 7 8 9 10 11 12 13 14 15 16 17 18 19 20 21 22 23 24 25 26 27 28 29 30 31 32 33 34 35 36 37 38 39 40 41 42 43 44 45 46 47 48 49 50
000
ASUS45 KPSR 300110
RWRAZ

ARIZONA HOURLY REGIONAL WEATHER ROUNDUP
NATIONAL WEATHER SERVICE PHOENIX AZ
600 PM MST MON JUN 29 2015

NOTE: FAIR INDICATES FEW OR NO CLOUDS BELOW 12,000 FEET WITH NO
SIGNIFICANT WEATHER AND/OR OBSTRUCTIONS TO VISIBILITY.

AZZ001>003-036-300200-
NORTHWEST ARIZONA

CITY           SKY/WX    TMP DP  RH WIND       PRES   REMARKS
BULLHEAD CITY  PTSUNNY  111  48  12 SE5       29.70S HX 107
KINGMAN        CLOUDY    91  53  27 N16       29.98R
$$

AZZ004>008-015-016-018-300200-
NORTH CENTRAL ARIZONA

CITY           SKY/WX    TMP DP  RH WIND       PRES   REMARKS
GRAND CANYON   MOSUNNY   83  46  27 W5        30.25R
WILLIAMS       MOSUNNY   81  48  32 NW5       30.32R
PRESCOTT       CLOUDY    74  66  76 SW13      30.13F
FLAGSTAFF      CLOUDY    78  51  38 W5        30.28S
PAYSON         CLOUDY    79  57  47 NE9       30.13R
PAGE           MOSUNNY  102  34   9 VRB3      29.97S
$$

AZZ009>014-017-300200-
NORTHEAST ARIZONA

CITY           SKY/WX    TMP DP  RH WIND       PRES   REMARKS
WINSLOW        CLOUDY    94  42  16 E10       30.08R
SAINT JOHNS    CLOUDY    73  56  54 SW12      30.19R
WINDOW ROCK    PTSUNNY   86  49  27 N7        30.22S
SHOW LOW       CLOUDY    75  46  35 CALM      30.26R
$$

AZZ023-300200-
GREATER PHOENIX AREA

CITY           SKY/WX    TMP DP  RH WIND       PRES   REMARKS
PHOENIX        PTSUNNY  108  55  17 W12       29.72F HX 107
BUCKEYE        SUNNY    108  55  18 SW10      29.74F HX 106
GLENDALE       PTSUNNY  109  55  17 S14       29.73F HX 108
LUKE AFB       PTSUNNY  108  59  20 SW15      29.71F HX 108
DEER VALLEY    PTSUNNY  105  56  19 SW13      29.74F HX 104
SCOTTSDALE     CLOUDY   105  56  19 SW8       29.76F HX 104
MESA-FALCON    PTSUNNY  106  55  18 W14       29.75F HX 105
MESA-GATEWAY   PTSUNNY  106  57  20 W9        29.87R HX 105
$$

AZZ027-028-300200-
SOUTHWEST MARICOPA COUNTY AND PINAL COUNTY

CITY           SKY/WX    TMP DP  RH WIND       PRES   REMARKS
CASA GRANDE    PTSUNNY  106  57  20 W14       29.78R HX 105
$$

AZZ503-504-507>509-300200-
SOUTHEAST ARIZONA

CITY           SKY/WX    TMP DP  RH WIND       PRES   REMARKS
TUCSON         CLOUDY    89  57  33 W6        29.93S
RYAN FIELD     SUNNY     90  63  40 NW6       29.91
NOGALES        CLOUDY    82  61  48 N3        30.03S
SIERRA VISTA   PTSUNNY   75  61  60 W17G26    30.07S THUNDER
DOUGLAS        MOSUNNY   95  43  16 SW3       29.97S
SAFFORD        CLOUDY    94  52  24 NE14      29.89F
$$

AZZ020-021-025-026-031-300200-
SOUTHWEST ARIZONA

CITY           SKY/WX    TMP DP  RH WIND       PRES   REMARKS
YUMA           MOSUNNY  107  60  21 SW13      29.72F HX 108
$$

CAZ031-033-041-043-047-048-061-300200-
SOUTHERN CALIFORNIA

CITY           SKY/WX    TMP DP  RH WIND       PRES   REMARKS
DOWNTOWN L.A.  PTSUNNY   76  60  57 CALM      29.86S
L.A. AIRPORT   PTSUNNY   71  59  65 SW8       29.87S
SAN DIEGO      PTSUNNY   72  62  71 NW6       29.89F
BURBANK        PTSUNNY   87  54  32 SE10      29.85F
ONTARIO        PTSUNNY   92  57  30 W13       29.85S
RIVERSIDE      MOSUNNY   92  55  28 W13       29.84S
PALM SPRINGS   SUNNY    107  59  20 E6        29.75F HX 108
EL CENTRO NAS  MOSUNNY  107  59  20 SW6       29.71F HX 108
IMPERIAL       SUNNY    106  63  24 W5        29.69F HX 109
BLYTHE         MOSUNNY  110  58  18 S13       29.71S HX 110
NEEDLES        MOSUNNY  114  48  11 S8        29.71F HX 110
$$

NVZ020-UTZ003-300200-
SOUTHERN NEVADA-UTAH

CITY           SKY/WX    TMP DP  RH WIND       PRES   REMARKS
LAS VEGAS      FAIR     109  44  11 SE6       29.78R HX 104
SALT LAKE CITY MOSUNNY  102  45  14 NW7       29.96F
$$

NMZ009-TXZ055-300200-
NEW MEXICO-WEST TEXAS

CITY           SKY/WX    TMP DP  RH WIND       PRES   REMARKS
ALBUQUERQUE    CLOUDY    90  43  19 SE16      30.12R
EL PASO        CLOUDY    93  47  20 NE9       29.97F
$$


........................KEY........................
SKY/WX - SKY CONDITION/WEATHER
TMP    - TEMPERATURE IN FAHRENHEIT
DP     - DEW POINT IN FAHRENHEIT
RH     - RELATIVE HUMIDITY IN PERCENT
WIND   - DIRECTION AND SPEED IN MILES PER HOUR (MPH)
VRB    - VARIABLE WIND DIRECTION
PRES   - MEAN SEA LEVEL PRESSURE IN INCHES OF MERCURY
         F - FALLING PRESSURE   R - RISING PRESSURE
         S - STEADY PRESSURE
VSB    - VISIBILITY IN MILES
HX     - HEAT INDEX IN FAHRENHEIT
WCI    - WIND CHILL INDEX IN FAHRENHEIT
TC     - TEMPERATURE IN CELSIUS WHICH IS ALSO KNOWN AS
         TEMPERATURE IN CENTIGRADE
AFB    - AIR FORCE BASE
         LUKE AFB IS LUKE AIR FORCE BASE
         DAVIS-MONTHAN IS DAVIS-MONTHAN AIR FORCE BASE
NAS    - NAVAL AIR STATION
         EL CENTRO NAS IS EL CENTRO NAVAL AIR STATION
N/A    - NOT AVAILABLE



USA.gov is the U.S. government's official web portal to all federal, state and local government web resources and services.